Theta_e
305 316 317 315 315 310 307 307 306 304 304 305 307 307 308 308 308 307 308 304 298 302 308 305 304 305 306 303 296 295 296 294 294 294 294 294 295 295 295 295 295 295 296 295 293 292 291 290 290 290 290 289 289 289 288 289 288 288 287 285 284 283 282 281 280 278 277 276 275 275 274 274 274 274 273 274 274 275 275 276 277 278 279 279 279 279
309 315 311 312 313 306 305 307 304 304 304 304 306 308 308 308 309 306 303 303 299 301 307 305 304 302 303 303 297 294 295 294 294 294 294 294 294 295 295 295 295 295 295 294 293 292 291 290 290 290 290 290 289 289 289 289 288 288 286 285 283 282 282 280 279 277 276 275 275 274 274 274 274 273 273 273 274 274 274 275 276 277 278 279 279 279
314 312 306 307 304 300 304 308 306 306 307 307 306 306 309 308 308 306 302 303 302 301 306 306 303 302 302 301 296 292 294 295 295 295 295 295 295 295 296 295 295 295 295 294 293 292 291 290 290 290 290 290 290 289 289 289 288 287 286 284 283 282 281 280 278 277 276 275 274 274 274 274 274 273 273 273 273 273 273 275 276 277 278 279 279 279
311 308 305 301 299 302 307 308 309 309 308 309 307 307 310 306 304 308 305 304 304 300 303 304 302 302 302 300 296 293 294 295 295 295 295 295 295 296 296 296 296 295 295 294 294 293 292 291 290 290 290 290 290 289 289 289 288 287 285 283 282 281 280 279 277 276 275 275 274 274 274 274 273 273 273 273 273 273 273 274 275 276 278 279 279 279
307 303 301 299 302 307 305 307 311 309 309 311 309 308 309 305 303 306 304 302 303 301 300 301 304 306 305 305 302 295 293 294 294 294 295 295 295 295 295 295 295 295 294 294 294 293 292 291 291 291 290 290 290 290 289 289 288 286 284 283 282 281 280 278 277 276 275 274 274 274 274 273 273 273 273 272 273 273 273 273 274 275 277 278 279 279
305 300 300 304 309 309 305 306 307 305 307 310 309 307 305 304 302 303 302 301 304 305 301 300 308 312 309 308 307 298 294 294 293 292 293 294 295 294 294 295 295 294 294 294 294 293 293 292 291 291 290 290 290 290 290 289 287 285 284 282 282 281 279 278 276 275 275 274 274 274 273 273 273 272 272 272 272 272 272 273 273 274 276 277 278 279
304 300 301 307 311 310 307 305 302 304 306 306 306 307 305 302 301 301 301 301 307 307 301 299 306 310 308 309 306 298 295 296 294 292 292 293 294 293 294 296 295 295 294 294 294 294 293 292 292 291 291 291 290 290 290 288 287 285 283 282 281 281 279 277 276 275 274 274 274 273 273 273 273 272 272 272 272 272 272 272 273 273 274 275 276 277
304 303 304 307 310 310 307 303 302 304 306 306 304 303 303 301 301 301 300 302 305 305 302 301 302 305 308 308 300 295 299 301 298 296 293 292 294 295 296 297 296 296 296 295 295 295 294 293 292 292 292 291 290 290 289 288 286 284 283 282 281 280 278 277 276 275 274 274 273 273 272 272 272 272 272 272 272 272 271 272 273 272 273 274 275 276
301 305 305 306 308 306 304 302 303 303 304 307 303 300 301 300 301 301 300 303 302 302 307 304 300 303 309 307 299 294 300 303 304 305 299 294 296 298 298 299 298 298 297 296 296 295 295 294 293 292 291 291 290 290 289 287 285 284 283 282 281 279 278 276 275 275 274 274 273 272 272 272 272 272 272 272 271 271 271 272 272 272 272 273 273 274
300 302 302 303 305 304 303 301 302 303 303 303 300 299 302 301 301 301 301 305 303 304 311 305 299 303 308 308 303 298 301 306 307 309 302 295 298 300 299 300 299 298 298 297 296 296 295 294 293 292 291 291 291 290 289 287 285 284 283 282 281 279 277 276 275 275 274 273 273 272 272 272 272 271 271 271 271 271 271 271 271 271 271 272 272 273
300 301 301 302 302 301 302 299 298 300 300 300 300 303 305 302 301 302 303 304 305 311 314 303 299 302 305 309 307 304 308 312 309 307 302 297 299 301 300 300 299 298 297 297 296 295 295 294 293 292 291 291 291 290 288 287 285 284 283 281 280 278 277 276 275 275 274 273 272 272 272 271 271 271 271 271 271 270 270 270 270 271 271 271 271 272
302 302 303 301 300 300 301 300 298 297 296 301 305 304 306 306 302 304 308 306 307 316 312 301 300 301 304 308 309 308 309 309 305 306 305 299 299 301 300 300 299 297 297 296 295 295 294 294 293 292 292 291 291 289 288 286 285 284 283 281 279 278 276 275 275 274 274 273 272 271 271 271 271 271 271 270 270 270 270 270 270 270 271 271 271 271
308 306 303 300 300 300 301 303 304 301 301 305 308 307 311 314 309 311 315 309 310 313 304 300 302 301 302 305 305 306 307 304 300 300 302 299 298 301 300 299 298 297 296 295 295 295 294 294 293 293 292 292 291 289 287 286 285 284 282 280 279 277 276 275 275 274 273 273 272 271 271 271 271 270 270 270 269 269 269 269 269 270 270 270 271 271
314 309 302 302 303 299 299 303 306 306 304 305 306 309 314 313 310 314 314 306 308 309 301 298 300 302 305 306 306 307 304 301 298 297 299 298 298 300 299 298 297 296 296 296 295 295 294 294 293 293 292 291 290 289 287 286 285 283 281 280 278 277 276 275 275 274 273 272 271 271 270 270 270 270 270 270 269 269 269 269 269 269 269 270 270 270
312 311 305 303 303 299 299 301 301 302 302 302 301 303 308 310 308 311 313 309 309 308 301 298 301 307 310 309 308 304 300 298 298 298 298 298 299 299 298 297 297 297 296 296 295 295 295 294 293 292 292 291 289 288 286 285 284 283 281 279 278 276 276 275 275 274 273 272 271 270 270 270 270 270 270 269 269 268 268 268 269 269 269 269 269 269
307 309 304 300 298 298 300 298 297 301 302 300 299 301 305 308 308 307 307 305 302 303 303 302 305 308 307 307 303 298 297 296 295 296 296 298 300 298 297 298 297 297 297 296 296 295 294 294 293 292 291 290 289 287 286 285 284 282 281 279 277 276 276 275 275 274 273 272 271 271 270 270 270 270 270 269 269 268 268 268 268 268 268 268 268 268
307 309 304 299 298 297 298 298 296 300 303 300 300 304 301 300 305 306 302 299 297 302 306 304 306 306 303 309 308 302 302 301 298 296 294 297 299 296 297 299 298 298 298 297 296 295 295 294 293 292 291 289 288 287 286 285 283 282 280 278 277 277 276 275 274 273 273 272 271 271 270 270 270 270 270 269 269 268 268 268 268 268 268 268 268 268
306 310 305 300 300 298 296 297 296 296 300 302 302 303 299 296 303 304 302 304 304 306 306 302 305 307 304 308 311 307 306 308 307 301 294 295 296 295 297 300 299 299 298 297 296 295 294 294 293 292 290 289 288 287 286 284 283 281 280 278 277 277 276 275 274 273 273 272 272 271 271 270 270 271 270 269 268 268 268 268 268 268 268 268 268 268
303 310 307 299 300 300 296 298 300 297 296 299 299 299 298 301 307 304 302 307 307 306 307 303 302 305 304 307 311 310 309 309 308 305 301 298 295 295 299 300 299 299 298 297 296 295 295 294 293 292 290 289 288 286 285 284 283 281 280 279 278 277 276 275 274 273 272 272 272 271 271 271 271 271 270 269 268 268 268 268 267 267 268 268 269 269
301 306 308 300 297 299 298 300 306 302 296 296 297 298 299 302 306 304 301 304 306 306 308 306 304 307 308 310 312 309 307 306 305 305 304 299 296 298 300 299 299 298 297 297 296 295 295 293 292 291 290 289 287 286 285 284 282 281 280 279 278 277 276 275 274 273 272 272 272 272 271 271 271 270 269 268 268 268 267 267 267 267 268 269 269 269
301 303 307 305 299 299 302 302 305 306 302 300 301 301 301 299 300 300 299 300 305 306 307 306 307 308 306 307 308 306 306 305 304 305 302 297 298 300 300 299 299 298 297 297 296 295 294 293 292 291 289 288 287 286 285 284 282 281 280 279 277 277 276 275 274 273 273 272 272 272 272 271 271 270 269 268 268 268 268 267 267 268 269 269 270 270
302 302 307 308 304 304 306 301 298 301 302 304 305 306 305 303 302 303 302 300 299 302 305 305 305 305 303 305 306 305 305 303 300 299 298 297 299 300 299 299 299 297 297 297 295 295 294 293 292 291 289 288 287 286 285 284 282 281 280 279 277 277 276 275 274 274 273 272 272 272 272 272 271 271 270 269 268 268 268 268 268 269 269 270 271 271
299 302 305 306 304 304 302 295 292 294 297 300 302 302 303 304 305 307 308 304 299 298 299 299 301 303 303 305 305 302 300 299 297 296 294 296 299 299 299 299 298 298 297 296 295 295 294 293 292 290 289 288 287 286 285 284 283 282 280 279 277 277 276 276 275 274 273 273 273 272 272 272 272 271 270 269 269 270 269 269 269 269 270 271 272 272
299 302 304 306 306 303 299 295 292 292 294 298 299 298 300 303 304 305 305 303 302 301 299 299 302 304 302 302 300 297 295 295 297 297 295 296 298 299 299 299 298 298 297 296 296 295 293 293 292 291 290 289 288 287 285 284 283 282 280 279 278 277 276 276 275 274 273 273 273 272 272 272 272 271 270 270 270 271 270 270 270 270 271 272 272 272
301 305 304 306 309 307 307 306 302 298 297 298 301 299 299 301 300 299 298 297 300 302 301 303 305 303 302 302 298 297 297 296 297 298 297 296 297 298 299 299 298 298 297 297 296 295 294 293 292 292 291 289 289 287 286 285 283 282 281 279 278 277 277 276 275 274 273 273 273 272 272 272 272 271 271 271 271 271 271 271 271 271 272 272 273 273
301 304 303 304 307 307 310 312 309 308 303 300 301 299 297 298 299 299 300 299 300 300 299 302 305 302 301 303 301 300 300 299 298 299 299 298 298 299 298 298 298 297 297 297 296 295 294 293 293 292 291 290 289 288 287 285 284 282 281 279 278 278 277 276 275 274 274 273 273 272 272 272 272 272 271 271 272 272 272 272 272 272 272 273 273 274
301 301 300 303 307 306 307 306 303 304 303 301 301 300 298 297 297 299 302 301 301 300 298 300 301 301 300 300 300 300 300 300 300 299 299 299 298 298 298 298 298 297 298 297 296 295 294 294 293 293 292 291 290 288 287 286 284 283 281 280 279 278 277 276 275 274 274 274 273 272 272 272 272 272 272 272 272 272 272 272 272 272 272 273 274 274
301 301 300 301 303 303 303 302 299 298 299 300 300 300 300 297 295 298 300 300 300 301 301 300 300 300 300 299 300 300 300 300 299 298 298 298 297 298 298 298 298 298 298 297 296 296 295 294 294 293 292 292 290 289 288 286 285 283 281 280 279 278 277 276 275 274 274 274 273 273 273 273 273 273 272 272 272 273 273 273 273 273 273 273 274 275
300 302 300 299 301 301 299 298 298 298 298 298 299 299 299 298 296 297 298 298 299 300 301 301 301 300 300 299 299 299 299 298 298 297 298 297 297 297 298 298 298 298 298 297 297 296 295 295 294 294 293 292 290 289 288 287 285 283 282 280 279 278 277 276 275 274 274 274 274 273 273 273 273 273 272 272 273 273 273 273 273 273 273 274 274 275
298 304 301 298 300 301 299 298 298 298 298 299 298 298 297 298 297 297 297 297 297 298 298 298 298 298 298 298 298 298 298 297 297 297 297 297 298 298 298 297 297 297 297 297 297 296 295 295 295 294 293 292 291 290 289 288 286 284 282 280 279 279 278 276 275 275 274 274 274 273 273 273 273 273 273 273 273 273 273 274 274 274 274 274 274 275
296 302 301 298 300 301 300 300 299 298 299 299 298 298 297 297 297 296 295 295 296 296 296 296 296 296 296 296 296 296 297 297 296 297 298 298 298 298 297 297 297 297 297 297 297 296 296 295 295 294 293 293 292 291 290 288 287 285 283 281 280 279 278 276 276 275 275 275 274 274 273 273 273 273 273 273 273 273 274 274 274 274 274 274 274 275
296 300 300 299 301 302 300 300 300 299 299 300 302 302 300 299 299 298 296 295 296 297 297 296 297 298 298 297 297 297 297 297 296 297 297 298 298 297 297 296 296 297 296 296 296 296 296 296 296 295 294 294 293 292 291 289 287 285 284 282 280 279 277 277 276 275 275 275 274 274 273 274 273 273 273 273 273 273 273 274 274 274 274 274 275 275
295 298 300 298 301 305 301 298 298 298 302 307 306 304 303 302 302 301 299 297 296 297 299 300 300 300 299 298 297 298 297 297 297 297 297 297 296 296 296 296 296 296 296 296 296 296 296 296 296 296 295 294 293 292 291 289 287 286 284 282 280 279 278 277 276 275 275 275 275 274 274 274 273 273 273 273 273 273 273 274 274 275 275 275 275 275
293 296 297 296 300 307 303 298 297 300 308 311 304 300 302 301 300 301 302 301 298 296 298 301 300 299 298 297 297 297 296 296 296 296 296 296 296 296 296 296 296 296 295 295 295 295 295 295 295 295 295 294 293 292 291 289 287 286 284 281 280 279 278 277 276 275 275 275 275 274 274 273 273 273 273 273 273 273 273 274 274 275 275 275 275 275
296 296 297 296 298 303 302 301 302 308 312 307 300 299 298 297 299 301 301 301 299 297 298 299 298 298 297 296 296 296 296 296 295 295 296 296 296 296 296 296 295 295 295 295 294 294 294 294 294 294 294 294 293 292 291 289 288 286 283 282 281 280 279 278 277 276 275 275 275 274 274 273 273 273 273 273 272 272 273 274 274 275 275 275 275 275
300 299 298 297 298 300 301 302 304 307 307 302 299 299 296 296 300 300 299 301 300 298 298 298 297 297 295 295 296 295 295 295 295 295 296 296 296 296 295 295 295 294 294 294 293 293 293 293 293 293 293 293 292 291 290 289 288 285 283 282 281 280 279 278 277 276 275 275 275 275 274 273 273 273 273 272 272 272 273 273 274 274 275 275 275 275
298 300 298 297 298 299 300 301 302 302 303 303 301 299 296 296 297 297 298 300 298 297 297 296 296 296 294 295 295 295 294 294 294 295 295 295 295 295 294 294 294 293 294 293 293 293 292 292 292 291 291 291 291 291 290 289 287 285 283 281 280 280 279 278 277 277 276 275 275 274 274 273 272 272 272 272 272 272 272 273 273 274 274 274 275 275
292 297 298 298 298 298 298 301 303 303 307 308 303 298 295 294 294 293 295 298 297 296 296 295 295 295 294 294 295 294 294 294 294 295 295 295 294 294 294 293 293 293 293 292 292 292 292 291 291 290 290 290 290 290 289 288 287 285 283 282 281 280 279 279 278 278 276 275 274 274 273 273 272 271 271 272 272 272 272 272 273 273 273 274 275 275
292 296 298 297 298 298 298 301 303 304 306 306 301 297 294 293 292 292 296 300 299 296 295 295 295 294 294 294 294 294 294 294 294 294 294 294 293 293 293 293 292 292 292 292 292 291 291 291 290 290 289 289 289 289 288 287 286 285 283 282 281 280 279 280 279 278 277 275 274 273 272 272 272 271 271 271 271 271 271 271 272 272 273 273 274 275
296 297 298 297 299 299 298 300 301 301 302 301 298 296 294 292 292 295 299 301 299 295 295 295 294 294 294 294 293 294 293 293 294 293 293 293 293 293 293 292 292 292 292 291 291 291 291 291 290 289 289 288 288 288 287 286 285 284 284 283 281 280 280 281 280 278 276 274 273 272 272 272 272 271 271 271 271 271 271 270 271 271 272 272 273 274
297 296 295 296 299 298 297 299 300 300 301 300 297 296 294 293 295 298 299 298 296 295 295 295 294 294 294 293 293 293 293 293 293 293 293 293 293 292 292 292 292 292 291 291 291 291 292 291 290 290 289 288 288 286 285 285 284 284 284 283 281 281 282 281 279 277 275 274 273 272 272 272 272 271 271 270 270 270 270 270 270 270 271 271 272 273
299 297 295 296 298 297 295 297 299 300 300 297 296 296 294 295 297 298 297 296 295 295 295 294 294 294 293 293 293 293 293 293 293 293 293 292 292 292 292 291 291 291 291 291 292 292 291 291 291 291 290 289 287 286 285 284 283 283 283 282 282 284 283 280 277 276 275 274 273 273 272 272 272 271 271 270 269 269 269 269 269 269 270 270 271 272
300 301 302 301 298 296 296 298 301 302 299 295 296 297 296 296 297 296 295 295 295 294 294 294 294 293 293 293 293 292 293 292 292 292 292 292 292 291 291 291 291 291 291 291 291 291 291 291 291 290 290 289 288 286 285 283 283 283 282 282 283 284 282 278 276 276 274 273 273 273 272 272 271 271 270 270 269 268 269 269 269 269 269 269 270 271
299 299 302 302 298 297 300 303 303 301 298 295 296 297 296 296 296 295 295 294 294 294 294 293 293 293 293 293 292 292 292 292 292 292 292 291 291 291 291 291 291 291 291 290 291 291 291 291 290 290 290 289 288 287 285 284 283 282 282 283 283 282 280 278 276 275 274 274 273 273 272 272 271 271 270 269 269 268 268 268 268 268 268 268 269 270
299 297 298 300 299 298 300 301 300 297 297 296 296 296 296 295 295 295 294 294 294 294 293 293 293 293 292 292 292 292 292 292 292 291 291 291 291 290 290 290 290 290 290 290 290 290 290 290 290 290 289 289 288 287 286 284 283 282 282 283 282 281 279 278 276 275 274 274 273 273 272 271 271 270 269 269 268 268 268 268 267 267 268 268 268 269
296 295 295 298 300 298 296 297 297 296 296 296 295 295 295 295 294 294 294 294 294 293 293 293 293 292 292 292 292 291 291 291 291 291 291 290 290 290 290 290 290 290 290 290 290 290 289 290 290 289 289 289 288 287 286 285 284 283 284 283 281 280 279 277 276 275 274 274 274 273 272 271 271 270 269 269 268 268 268 268 267 267 267 267 267 268
296 294 295 296 298 297 296 296 296 294 295 296 295 295 295 294 294 294 293 293 293 293 293 292 292 292 292 291 291 291 291 291 290 290 290 290 290 290 289 289 289 289 289 289 289 289 289 289 289 289 289 289 288 287 286 285 285 284 284 282 280 279 279 277 276 275 274 274 274 273 272 271 271 270 270 269 268 268 267 267 267 267 267 267 267 268
296 296 297 296 296 295 296 295 294 294 295 295 295 295 294 293 293 293 293 293 293 292 292 292 291 291 291 291 291 291 290 290 290 290 290 290 289 289 289 289 289 289 289 289 288 288 288 288 288 288 288 288 288 287 286 286 285 285 284 282 281 280 278 277 276 275 274 273 273 273 273 272 271 270 270 269 268 268 267 267 267 267 267 267 267 267
295 296 296 295 295 295 295 295 294 294 295 294 294 294 293 293 293 293 293 293 292 292 292 291 290 291 290 290 290 290 290 290 290 290 290 289 289 289 289 288 288 288 288 288 288 288 288 288 287 287 287 287 287 287 287 286 286 285 284 282 281 280 279 278 277 276 274 273 273 273 273 272 271 270 270 269 269 268 268 267 267 267 267 267 266 266
295 296 295 295 295 295 294 294 294 294 293 294 293 293 293 293 293 292 292 292 291 291 291 290 290 290 290 290 290 289 290 290 289 289 289 289 289 289 288 288 288 288 288 288 288 288 288 287 287 286 286 286 286 287 287 287 286 285 284 283 281 280 279 278 277 275 274 273 273 273 273 272 271 270 270 270 269 268 268 267 267 266 267 267 266 266
295 295 295 295 295 294 294 294 294 293 293 293 293 293 292 292 292 292 292 291 291 291 290 290 290 289 289 289 289 289 289 289 289 289 289 289 289 288 288 288 287 287 287 287 287 288 287 287 286 285 285 285 285 286 287 286 286 286 284 283 281 280 279 277 276 275 274 274 273 274 273 273 271 270 269 269 269 268 268 268 267 266 266 266 266 266
Wind_Speed
5 4 3 2 4 4 4 4 4 3 3 3 3 2 4 3 5 6 5 5 2 3 7 6 6 8 8 8 13 21 24 24 26 25 27 30 30 31 32 33 34 34 34 29 24 24 24 26 27 27 28 29 29 28 29 31 33 34 36 36 34 34 35 36 37 38 37 35 33 32 30 30 30 31 30 25 20 18 19 18 18 18 17 18 20 22
5 5 2 5 7 5 2 3 3 2 3 3 3 2 3 3 6 6 3 5 4 3 5 3 6 10 9 9 12 17 16 20 27 27 28 31 31 32 33 35 36 34 33 29 27 26 26 28 29 29 30 30 30 29 30 33 34 35 36 35 34 34 34 36 38 37 34 32 31 30 30 29 30 30 28 24 21 18 16 15 16 16 16 16 18 20
5 2 5 6 6 6 4 4 3 3 5 3 2 1 3 3 5 6 2 3 4 3 6 6 9 12 8 7 10 16 18 21 28 30 31 31 31 33 35 36 36 34 34 32 31 29 28 30 30 30 31 31 30 30 32 34 34 36 36 34 33 33 34 37 37 34 32 30 29 29 29 29 29 29 27 23 21 18 15 16 16 15 14 14 15 18
1 3 5 5 8 7 3 4 5 4 3 2 3 2 3 3 1 4 4 5 4 2 5 6 8 11 7 3 5 13 19 18 20 24 28 29 31 35 35 34 35 35 35 34 32 31 30 31 32 32 33 31 31 31 33 34 35 36 34 33 32 32 36 38 36 32 30 29 28 29 29 28 29 29 27 24 21 18 14 16 17 15 14 13 13 15
2 3 2 6 5 5 3 3 5 5 3 2 4 4 3 3 3 6 4 6 6 2 2 4 6 7 5 4 5 6 11 16 18 19 24 29 33 34 34 35 36 36 36 34 33 32 31 32 33 33 33 32 32 33 34 35 35 35 33 32 31 33 37 37 33 30 28 27 28 28 29 28 28 28 27 25 23 21 15 14 17 16 14 13 12 12
1 2 2 4 5 5 3 1 1 3 2 4 4 6 5 5 6 6 5 6 5 3 1 1 3 5 5 4 6 3 3 11 14 15 24 30 30 32 35 38 39 37 36 35 34 34 33 33 33 33 34 34 34 34 34 35 35 33 32 31 32 35 37 35 31 29 27 27 28 29 29 28 28 28 26 25 25 24 21 17 16 16 14 13 13 12
1 1 1 4 4 6 4 1 3 4 4 2 3 5 5 3 5 6 2 1 1 2 2 2 2 5 6 5 6 3 4 9 9 12 23 30 30 32 36 39 39 38 37 36 35 35 35 34 33 34 35 35 35 34 34 34 34 32 31 31 33 36 35 33 30 28 27 28 29 29 29 27 27 26 25 25 26 26 25 23 18 16 15 14 14 13
2 2 4 5 5 5 3 1 4 6 5 3 2 4 2 4 6 5 4 3 3 3 3 2 3 3 5 6 4 3 5 8 8 10 18 26 32 34 36 38 37 37 36 35 35 35 35 35 35 36 36 34 34 34 34 34 32 31 31 32 34 35 34 31 29 27 27 29 30 29 27 26 25 25 26 26 26 26 27 25 19 16 16 17 16 15
0 0 1 3 4 2 1 3 5 7 3 5 4 2 3 4 4 3 5 4 1 3 5 3 2 1 5 6 3 4 4 8 10 10 12 21 28 29 31 32 33 34 33 32 34 33 34 35 35 36 34 34 34 34 33 32 31 31 32 33 34 34 32 30 28 27 28 30 30 29 26 25 25 25 25 25 26 26 26 24 19 15 15 17 19 18
0 1 2 4 3 2 4 3 6 8 3 5 2 1 1 2 2 3 4 3 2 3 4 4 2 0 5 6 3 2 2 6 9 9 10 17 21 22 24 26 26 27 28 29 31 31 32 33 34 35 34 35 35 33 32 32 31 32 33 34 33 32 31 28 27 28 30 31 30 27 25 25 25 25 25 25 26 26 24 21 17 14 14 17 19 20
1 1 2 2 2 3 2 2 4 7 4 6 4 2 2 3 3 3 2 3 3 2 6 5 1 2 3 6 4 3 5 7 7 6 8 14 19 20 21 21 21 21 22 24 26 28 29 30 33 34 35 36 34 33 32 32 32 33 34 33 32 31 29 27 27 29 31 31 29 26 25 24 25 25 26 26 26 24 22 18 16 15 15 16 18 20
3 0 2 1 2 1 2 1 1 3 2 4 4 3 3 3 2 3 4 4 2 4 5 3 2 1 2 6 5 5 7 6 6 6 8 11 18 21 20 20 20 19 19 21 23 25 26 28 31 33 35 35 33 33 32 32 33 34 34 32 31 30 27 27 28 30 32 30 27 25 24 24 24 25 26 26 25 22 19 17 17 17 17 17 18 20
3 3 2 1 2 2 2 2 3 2 4 4 3 4 4 4 4 3 3 1 2 5 3 2 2 1 6 9 9 10 11 9 10 13 13 15 20 23 21 19 19 19 20 21 22 23 24 26 29 31 33 33 33 33 32 32 34 34 32 31 30 28 27 28 30 31 31 28 25 23 23 24 25 25 25 25 23 20 18 17 18 18 18 19 19 20
3 4 2 1 2 2 3 1 2 2 3 3 2 3 2 2 4 3 4 3 4 5 3 1 2 3 5 7 9 12 12 12 12 16 18 19 22 24 22 20 20 21 23 23 23 24 25 27 28 30 31 32 33 32 32 33 33 33 31 30 28 27 28 29 31 31 30 27 24 22 23 24 25 25 25 23 21 19 18 19 19 19 20 20 21 21
1 4 2 2 1 1 2 2 3 2 1 0 2 3 2 3 1 3 3 2 5 5 4 2 1 3 3 4 7 9 12 14 14 16 18 20 23 24 23 23 24 26 26 26 26 26 27 27 28 29 31 32 33 32 33 33 32 32 30 28 27 27 29 30 31 31 29 26 24 22 22 23 24 24 23 21 20 19 20 20 20 21 21 22 22 23
1 5 3 1 0 2 2 2 3 4 2 1 2 3 1 3 4 1 3 4 2 4 4 2 3 5 4 8 9 5 9 14 15 17 17 21 24 22 24 27 28 30 29 28 28 28 28 28 28 30 31 32 32 32 32 31 31 31 29 27 26 27 29 31 31 30 28 26 24 22 21 22 23 22 21 20 19 20 21 21 22 22 23 23 24 24
0 4 4 3 2 2 2 2 2 2 1 1 1 2 3 3 5 3 1 1 3 1 4 2 4 5 4 8 9 5 6 9 9 11 14 20 23 21 25 29 29 30 30 29 29 29 29 29 30 31 31 31 31 31 31 30 30 29 27 26 27 28 30 31 30 28 27 26 24 22 22 22 22 21 20 18 18 19 20 21 22 22 23 23 24 25
1 4 5 1 1 2 2 1 2 2 2 2 1 3 2 2 4 4 1 4 4 2 5 1 4 6 4 4 7 6 6 8 8 8 11 17 20 21 27 29 28 29 28 28 29 29 29 30 31 31 31 31 31 30 30 30 29 28 26 26 27 29 30 31 30 28 26 25 24 22 22 22 22 21 19 18 18 20 21 21 22 22 23 23 23 25
2 2 5 1 1 3 3 1 2 3 2 3 3 3 2 1 1 1 1 1 2 3 6 4 3 4 3 5 5 5 6 8 8 8 8 13 18 21 26 27 26 26 25 26 27 27 28 29 30 30 30 30 30 30 30 29 29 27 26 27 28 29 30 30 29 27 26 24 23 22 22 21 21 19 18 17 18 20 21 22 23 22 22 22 23 23
2 0 4 2 2 3 3 1 2 1 2 3 2 1 2 2 4 1 1 2 1 2 4 4 4 3 7 7 5 7 9 8 9 8 7 12 19 22 25 26 26 25 25 26 26 27 27 27 28 28 29 30 30 30 30 29 28 27 27 28 28 29 29 29 29 27 26 24 23 22 22 22 21 19 18 18 19 20 22 22 23 23 23 22 21 20
2 2 3 4 3 1 1 3 5 5 3 2 1 1 1 0 2 1 1 3 3 2 3 3 4 7 7 4 6 9 10 8 9 8 8 15 22 24 26 27 27 26 26 27 27 27 27 26 27 27 28 30 31 31 30 29 27 27 28 28 28 28 29 29 28 27 26 24 22 21 21 21 20 19 19 18 19 21 22 23 23 22 21 19 17 16
1 2 3 3 3 2 4 4 4 5 5 5 4 4 3 3 3 0 3 2 2 3 4 2 5 11 7 3 6 8 7 8 10 9 11 19 25 27 29 29 28 28 29 29 29 28 27 27 27 27 28 30 31 31 30 29 28 28 29 28 28 28 29 28 28 27 26 24 22 21 21 21 20 20 19 19 19 21 21 21 20 19 17 15 14 14
2 3 1 4 5 5 5 2 2 3 4 4 3 3 3 4 5 4 3 3 0 1 2 3 3 10 5 4 5 7 7 10 14 13 15 22 28 30 32 33 32 31 31 31 30 29 28 28 27 28 29 30 31 31 30 29 29 29 29 29 28 28 29 28 27 27 25 24 22 21 21 21 21 20 20 19 19 19 19 18 17 15 14 13 13 12
2 2 0 4 5 3 3 3 2 1 2 1 2 2 4 3 3 5 5 3 2 3 2 2 4 10 5 1 4 6 7 11 17 19 19 24 30 32 34 36 35 34 33 31 31 30 29 29 29 29 31 31 32 32 31 30 30 29 29 29 29 29 28 28 27 27 25 23 22 21 21 21 21 20 20 18 18 17 17 17 16 14 13 12 12 11
2 1 1 2 6 6 5 5 4 3 0 3 4 2 3 4 6 3 2 2 1 5 7 4 7 10 4 3 3 5 7 11 19 25 23 23 29 33 35 37 37 35 34 33 32 31 30 30 31 31 32 32 32 32 32 31 31 30 30 29 29 29 29 28 27 26 25 23 22 21 21 21 21 20 19 18 17 16 16 16 15 13 13 12 11 11
2 2 2 1 3 4 5 5 3 3 1 2 2 3 4 5 7 3 1 3 2 5 6 6 9 11 9 10 12 11 10 13 21 28 28 25 29 34 36 38 38 36 37 36 34 32 31 32 32 33 33 33 33 33 33 32 31 30 30 30 30 29 29 28 28 27 25 23 22 21 21 21 21 20 19 17 16 16 17 16 14 14 13 13 11 11
1 1 3 5 6 7 8 7 2 2 1 5 5 5 6 5 6 5 3 3 5 2 3 9 12 14 18 19 17 14 13 15 18 24 29 30 32 35 38 39 39 39 40 38 35 33 32 33 34 34 35 35 34 34 34 33 32 31 30 30 30 30 29 28 28 27 25 24 23 22 21 21 21 20 19 18 17 17 17 16 15 14 14 13 12 11
3 2 5 6 9 12 12 9 3 1 5 9 10 7 7 6 6 7 7 8 4 3 8 12 8 8 17 19 16 16 17 16 16 22 30 33 35 38 40 41 40 41 41 39 36 35 35 35 36 36 36 36 36 35 35 34 33 31 30 31 30 30 29 28 28 27 26 24 23 22 21 21 21 21 20 18 18 18 17 17 16 15 15 14 13 12
4 3 4 4 7 12 12 11 7 5 7 9 11 10 6 8 10 12 16 12 6 5 14 14 7 8 15 19 17 18 19 18 21 29 36 37 38 40 41 40 41 42 42 41 40 39 38 38 38 38 37 37 36 36 35 34 33 32 31 31 31 31 30 28 28 28 26 25 23 21 20 21 22 21 20 19 19 19 19 18 17 17 16 16 15 14
3 3 3 1 6 11 12 10 6 5 7 8 11 11 8 11 13 15 17 13 8 11 18 18 17 16 17 18 19 24 29 28 29 35 38 38 38 39 40 39 40 43 44 43 43 42 41 40 39 39 38 38 37 37 36 34 32 32 31 31 32 31 30 28 28 28 27 25 23 21 21 22 22 22 22 21 20 20 20 19 19 19 18 17 16 15
2 3 1 3 3 9 7 5 3 4 6 9 14 13 8 10 11 12 12 9 6 12 16 16 15 15 18 18 18 25 30 27 26 31 36 38 38 38 39 40 42 44 45 45 45 44 43 42 41 40 39 39 38 36 35 34 32 31 32 32 33 31 29 29 29 28 27 25 23 21 21 22 22 23 23 22 22 22 22 21 21 21 20 19 18 17
2 2 2 5 4 6 3 6 7 7 7 10 14 11 4 7 7 7 7 6 7 9 10 9 8 9 12 13 14 19 23 21 22 28 35 41 43 41 39 41 44 45 45 45 45 45 45 45 44 42 41 39 37 36 35 34 33 33 33 33 32 30 30 30 30 29 27 26 23 22 22 22 23 24 24 24 24 23 23 23 23 23 22 21 20 19
3 1 2 3 3 6 4 5 7 8 7 7 6 3 5 6 5 4 5 7 9 7 4 5 7 8 10 13 15 17 18 19 22 29 35 41 44 45 44 42 42 43 44 45 46 46 47 48 47 45 42 39 37 36 34 33 33 34 34 33 31 31 31 31 30 29 28 26 24 23 22 22 24 25 25 25 25 25 25 25 25 25 24 23 22 20
3 3 1 1 1 5 7 8 7 4 3 5 3 4 5 5 6 6 7 10 9 7 5 7 9 11 13 14 15 17 20 23 28 35 42 43 41 42 43 42 42 44 46 47 48 49 49 51 51 48 44 41 39 36 34 33 35 35 34 32 32 32 32 31 30 29 28 27 25 24 23 23 24 25 26 26 26 27 27 27 27 26 26 25 24 22
4 3 1 1 1 4 5 7 6 2 5 6 2 2 5 6 7 7 9 13 9 5 8 10 11 13 15 18 22 25 29 34 36 41 43 39 34 33 37 43 47 49 50 51 51 51 51 51 52 51 48 45 40 36 35 36 36 36 34 34 33 33 32 31 31 30 29 28 26 25 24 24 24 25 27 27 27 28 29 29 29 28 28 27 26 24
6 4 2 2 1 3 3 4 1 6 8 7 4 2 3 2 2 3 7 12 8 1 4 8 10 13 20 26 29 32 37 40 39 37 33 28 30 35 39 44 48 49 51 51 51 52 52 51 52 51 50 47 41 37 38 38 37 36 36 35 34 33 33 32 32 31 30 29 27 26 25 24 25 25 27 28 28 29 30 30 30 29 29 29 28 26
6 5 2 1 1 1 1 2 3 6 10 7 2 1 1 2 4 3 4 9 7 4 6 11 14 18 24 28 32 37 40 35 27 25 29 31 37 44 45 45 46 47 49 50 50 51 51 51 51 50 49 47 43 41 41 40 38 37 37 36 36 35 34 34 33 32 31 29 27 26 25 25 25 26 27 28 29 30 31 31 31 31 30 30 30 28
4 3 3 2 1 1 1 3 4 5 4 5 3 2 2 3 5 1 1 6 5 10 21 20 16 20 24 27 34 37 32 22 13 17 32 41 45 48 47 46 47 46 47 48 49 51 51 51 51 49 47 46 45 44 44 42 39 38 38 38 38 36 35 35 34 31 30 29 27 26 26 25 26 27 27 28 29 30 30 31 31 32 31 31 31 30
5 3 4 2 2 1 3 1 3 2 4 6 5 5 6 4 2 1 2 5 5 20 31 25 19 24 26 27 32 28 19 12 9 20 40 50 50 50 47 47 48 48 48 48 48 50 51 50 49 48 46 45 45 46 46 44 42 41 40 41 40 38 37 37 34 31 28 27 25 25 26 26 27 28 28 29 29 29 30 31 31 32 32 32 32 31
5 4 3 1 3 1 3 2 3 4 6 6 5 8 10 4 0 4 4 6 10 25 32 26 24 29 29 31 29 18 10 10 14 30 48 53 50 50 48 47 48 48 48 49 49 49 50 49 49 48 46 45 46 45 46 46 44 43 43 43 41 41 41 38 33 28 26 26 26 27 28 28 28 28 28 28 28 28 29 30 31 32 33 33 33 32
2 1 1 2 3 3 3 3 3 5 6 6 7 10 11 6 2 5 5 10 20 31 33 30 29 30 32 33 26 17 18 26 32 41 49 47 45 48 48 47 47 47 47 48 47 48 49 48 48 48 47 46 45 44 45 46 47 47 46 45 44 45 45 38 31 27 27 27 28 29 29 29 28 28 28 27 28 28 29 30 31 32 33 33 33 33
1 0 1 2 2 2 3 3 4 6 3 4 10 11 12 7 3 5 12 21 28 33 34 33 32 31 32 34 31 29 34 40 42 43 43 43 44 46 46 46 48 48 48 48 47 47 47 47 47 47 47 47 44 43 44 45 48 50 49 48 49 50 46 37 30 29 29 28 29 30 29 29 28 27 27 27 28 29 29 29 30 31 32 33 34 34
3 2 1 2 3 1 1 0 3 4 2 9 12 9 8 7 8 14 23 29 30 30 31 32 32 32 32 34 37 39 41 42 42 43 44 45 46 45 46 47 47 48 48 48 47 47 46 46 46 46 46 46 44 44 43 43 47 50 51 52 53 52 47 37 32 31 31 30 31 30 29 29 28 27 27 27 28 29 29 29 30 31 32 33 34 34
3 3 1 3 3 2 1 2 2 6 12 17 15 10 11 14 18 23 26 28 30 31 30 31 34 37 36 35 38 42 42 41 43 45 47 48 48 48 49 49 49 49 48 47 48 48 47 47 47 46 46 45 45 44 43 43 45 47 50 53 54 52 49 41 34 33 32 32 32 30 29 28 28 27 27 27 27 28 29 29 29 30 31 32 33 34
3 3 1 2 3 2 4 8 9 16 24 25 21 21 23 22 23 27 28 28 31 33 32 33 37 41 40 39 40 41 41 42 44 46 48 49 49 50 50 50 50 49 48 48 48 49 49 49 49 48 46 45 46 46 44 43 44 46 48 50 50 51 51 44 38 35 34 33 32 31 29 28 28 28 28 27 28 28 28 29 29 29 30 31 33 34
1 1 1 1 3 5 7 11 14 18 27 33 31 27 25 26 29 32 32 31 33 35 36 36 37 40 42 42 41 41 43 45 46 47 48 49 50 50 50 50 50 49 48 49 49 49 50 51 52 51 48 45 45 46 46 44 44 45 47 46 47 50 50 45 41 38 35 34 33 31 29 28 28 28 28 28 28 28 28 28 28 29 30 30 32 33
3 5 3 2 4 5 5 8 14 19 28 34 33 29 30 34 36 34 33 35 36 39 41 41 40 41 42 42 41 42 44 46 46 46 47 48 49 50 50 50 50 51 51 50 50 50 49 49 50 52 52 48 45 44 45 46 45 45 46 45 45 47 47 46 44 41 38 35 33 31 29 28 28 28 28 28 28 28 28 27 28 29 30 30 31 32
5 8 6 2 3 5 8 14 21 27 28 25 24 30 37 41 41 39 37 37 37 39 42 42 41 41 42 42 43 43 43 44 44 45 46 48 49 50 50 50 51 52 51 51 50 50 49 48 48 50 52 52 48 44 44 46 46 45 44 43 44 45 46 46 45 43 40 37 34 32 30 28 27 28 28 28 28 28 27 27 27 28 29 29 29 30
6 7 5 3 4 6 9 15 24 26 21 17 22 32 38 40 42 42 39 37 38 40 40 41 42 42 42 43 42 41 40 42 43 43 46 49 50 49 50 51 51 51 51 51 50 50 48 47 48 49 51 53 52 48 46 46 46 45 43 42 42 43 44 45 45 44 42 38 35 33 31 29 28 28 28 28 28 27 27 26 26 27 28 27 28 28
6 5 4 4 5 5 8 15 21 17 13 19 30 37 38 39 40 39 37 38 40 40 40 41 44 45 46 46 45 43 42 43 44 45 47 48 48 49 50 50 51 52 52 51 50 49 47 46 48 51 52 53 54 52 49 47 47 46 43 42 41 41 42 44 44 45 44 40 37 34 32 30 28 27 27 27 27 27 26 25 25 26 27 26 26 27
9 7 5 5 6 10 16 24 26 19 18 28 38 41 39 38 38 37 39 40 40 40 41 42 44 47 49 50 49 48 47 48 49 49 49 49 51 50 49 50 52 53 52 51 50 47 45 46 50 53 54 54 56 55 52 48 47 47 45 43 41 40 41 41 43 44 44 42 38 34 31 29 27 26 26 27 26 26 25 25 24 25 25 25 25 26
Wind_Direction
43 54 65 152 201 227 240 186 151 138 152 154 138 184 240 258 274 269 272 286 357 328 264 229 241 257 252 242 219 210 209 216 226 231 234 235 236 238 239 243 245 249 258 263 260 258 260 262 266 267 268 270 274 281 287 293 298 303 305 306 309 312 313 314 315 317 321 324 327 327 326 325 326 327 328 329 322 302 289 286 285 286 285 282 285 285
44 79 148 216 203 189 197 163 126 98 123 129 149 204 288 249 261 269 263 293 358 4 278 283 299 272 245 243 227 203 200 217 223 225 232 235 237 240 242 245 248 253 259 260 256 255 256 259 263 265 265 268 274 280 286 292 298 302 304 305 308 311 312 315 317 319 323 326 327 327 325 324 324 326 328 328 328 317 292 277 274 277 283 284 287 289
42 112 221 220 165 125 87 80 92 120 118 108 138 127 306 266 278 295 305 313 355 355 293 331 325 289 263 247 228 203 203 220 223 225 234 236 238 242 245 247 250 254 257 257 257 256 256 259 262 263 264 268 274 279 286 292 298 301 302 305 307 310 312 315 317 320 324 325 326 325 323 322 321 323 326 327 328 321 293 270 265 265 272 278 283 287
60 231 226 173 145 135 101 40 67 83 87 109 136 134 277 292 346 290 303 325 323 276 275 321 316 291 294 310 254 218 216 230 235 235 241 242 244 248 250 253 255 256 258 258 260 260 259 259 260 262 264 269 273 278 285 292 297 299 301 304 306 309 312 315 318 321 323 323 323 322 320 319 319 321 323 325 327 324 298 269 261 259 260 265 271 276
198 228 147 104 111 138 144 6 54 72 1 305 180 169 231 266 227 236 287 326 322 320 245 305 312 290 313 334 294 248 229 244 248 246 250 248 248 251 254 256 256 256 258 260 262 263 262 261 262 265 266 268 271 276 285 292 295 297 300 302 304 308 312 315 319 320 320 319 318 318 318 316 316 318 320 321 324 325 314 285 264 258 258 257 257 260
182 219 163 93 51 70 114 319 77 118 4 314 231 194 210 250 248 255 318 347 346 348 255 19 347 292 310 301 273 297 268 254 252 251 254 251 250 251 252 255 256 255 257 259 262 265 265 264 264 264 264 265 270 277 286 291 294 296 298 299 303 307 312 317 319 318 317 316 316 315 315 315 314 316 317 318 320 321 320 309 282 262 258 257 251 246
189 40 105 119 80 62 78 209 225 138 95 319 248 182 189 238 264 263 289 13 306 277 266 82 116 263 307 299 271 312 296 269 264 254 255 256 254 251 251 256 257 257 258 259 262 265 266 266 264 264 264 266 271 278 285 290 292 294 295 298 302 307 313 317 316 316 314 312 313 313 312 312 311 311 312 313 316 317 317 316 301 272 260 260 255 247
203 35 47 74 78 70 69 199 207 138 115 253 221 128 188 261 266 248 187 193 240 280 318 27 139 232 295 281 281 332 298 284 278 261 256 255 253 252 255 258 259 260 261 262 264 266 267 267 266 266 267 267 272 278 285 289 291 292 293 297 302 308 314 316 314 313 311 311 311 311 308 307 306 306 307 309 312 313 315 316 309 280 261 260 260 254
166 244 227 106 80 74 211 201 177 146 141 243 200 152 290 258 231 193 152 190 285 4 319 306 127 211 273 270 324 0 305 289 277 264 257 254 255 257 260 263 264 264 265 264 265 268 269 269 268 268 267 267 272 278 284 287 289 290 292 296 302 309 313 313 312 310 308 310 310 307 304 302 301 302 303 305 308 311 313 315 309 287 265 258 258 256
91 273 229 148 133 218 231 213 168 160 212 274 214 152 13 70 115 111 126 153 48 19 268 246 145 184 274 276 314 16 270 263 263 261 259 261 264 265 265 267 267 265 264 264 265 269 271 272 269 266 265 268 273 278 283 286 287 288 292 296 302 309 311 310 309 307 307 309 308 303 299 298 299 299 301 303 305 309 312 313 306 288 270 259 255 256
303 322 258 164 181 212 213 227 180 179 251 319 356 26 33 48 62 69 87 97 66 317 260 241 196 102 298 280 247 204 220 217 229 261 269 269 273 272 268 267 264 261 261 263 266 269 271 271 267 264 264 268 273 278 282 283 285 287 291 295 303 309 308 307 306 305 307 308 306 301 297 296 297 297 300 303 305 310 312 308 298 285 273 263 257 255
341 348 256 252 220 208 54 7 202 194 295 3 27 23 1 347 29 27 353 45 87 272 262 253 284 120 232 265 245 235 248 218 206 246 263 267 275 278 272 264 261 260 261 264 266 268 269 269 265 263 265 269 274 278 280 282 284 287 290 295 303 307 305 304 304 305 308 309 305 299 294 293 293 295 299 302 305 309 307 298 292 287 279 270 262 257
307 233 273 338 220 183 81 4 337 356 26 41 51 43 23 343 3 2 320 344 209 247 239 218 312 265 230 252 258 257 263 249 229 238 249 259 272 280 276 265 262 262 262 264 266 268 270 268 266 266 267 271 274 277 278 280 283 286 289 296 303 305 302 303 305 308 310 308 304 297 292 290 291 294 297 300 302 301 296 291 288 287 283 277 270 263
325 293 319 8 229 164 125 128 313 327 17 31 77 88 83 46 12 315 286 304 276 270 263 232 311 286 271 269 249 241 252 254 244 247 256 263 271 277 274 266 262 261 261 265 268 270 271 270 269 267 269 272 274 275 276 279 283 285 289 297 303 302 302 304 306 309 310 307 302 296 290 289 291 293 295 297 297 292 287 285 282 281 280 278 275 271
331 298 277 179 215 122 123 155 167 156 87 43 157 129 135 143 145 260 243 254 284 293 291 294 252 217 237 272 235 230 257 267 263 262 267 271 272 272 267 262 262 263 265 267 270 272 273 272 269 267 270 272 273 273 275 279 282 285 290 297 301 301 302 305 307 309 309 306 301 295 290 290 291 293 294 293 289 282 279 278 276 275 275 275 275 274
184 264 266 310 297 118 123 172 133 105 86 227 152 114 159 172 153 196 203 197 263 317 294 262 236 215 224 276 275 273 278 273 269 269 269 269 270 267 262 262 266 268 269 269 270 273 274 272 268 268 270 271 271 272 275 279 282 286 291 296 299 301 302 305 307 309 308 304 300 295 292 291 292 293 292 288 280 273 272 273 272 272 272 272 272 273
66 278 293 357 12 75 95 183 128 88 165 116 121 194 231 164 121 109 261 331 64 339 282 239 253 283 317 295 298 343 319 290 283 275 265 265 268 265 263 267 271 273 274 273 273 275 275 272 269 269 270 270 271 273 276 280 283 286 291 295 299 301 302 305 306 307 307 303 299 296 294 293 294 293 291 285 277 272 272 273 273 273 273 273 273 273
141 280 298 38 116 1 47 133 57 53 136 116 178 217 207 100 88 93 316 344 37 265 272 247 251 288 332 302 311 344 313 289 287 281 276 273 269 265 266 273 278 280 280 277 275 275 274 271 270 270 271 272 273 276 278 280 283 286 290 295 299 300 302 305 305 306 305 302 298 295 293 293 292 291 288 281 276 275 275 275 275 275 275 276 276 275
122 287 300 3 189 308 9 90 3 7 83 130 177 177 113 145 262 47 134 305 351 290 284 294 277 267 231 239 281 292 267 270 280 286 289 277 269 268 274 281 286 286 283 279 278 278 275 273 272 271 272 273 275 276 277 279 282 285 289 294 298 299 301 303 304 304 303 301 297 294 293 293 291 290 286 279 276 276 277 276 276 277 277 277 277 277
110 158 283 283 237 304 6 104 236 293 57 73 93 53 39 154 181 191 163 171 189 268 287 312 328 263 228 213 219 253 264 273 280 283 277 268 272 279 283 287 290 290 288 285 284 283 279 275 273 272 273 275 275 275 276 278 282 285 288 293 296 298 300 302 303 304 302 299 296 293 293 293 292 290 283 278 277 277 277 277 276 277 278 279 279 278
85 134 254 292 311 297 258 210 197 185 151 108 116 257 304 123 152 220 241 144 144 178 235 297 304 270 250 200 199 249 272 273 265 266 265 270 281 289 291 292 293 293 291 290 289 286 282 278 274 273 273 273 273 274 276 279 281 284 287 291 294 296 299 301 302 302 301 297 294 293 292 290 288 285 281 278 277 276 277 276 276 277 278 278 277 274
119 161 212 286 306 240 235 236 190 178 167 156 180 200 188 152 126 164 285 282 113 167 192 181 283 278 271 162 199 243 259 263 262 257 262 276 287 294 297 297 296 295 294 293 291 288 282 278 275 274 272 272 273 275 277 279 280 282 286 290 293 295 297 300 301 301 299 295 293 291 289 286 284 281 279 277 276 276 276 276 276 275 273 270 268 266
132 115 159 269 260 236 250 279 143 176 161 144 184 194 155 137 132 152 234 257 168 195 179 116 264 273 271 137 188 234 245 263 273 269 268 282 292 297 299 300 298 296 295 293 291 287 281 278 275 273 272 272 274 276 277 277 278 282 286 288 291 294 297 299 299 299 297 292 290 289 286 284 281 278 277 275 275 275 275 274 271 267 264 261 260 261
124 92 42 279 287 302 312 347 42 82 105 154 237 166 146 161 146 155 182 190 194 209 167 97 265 268 290 87 207 244 269 279 285 285 280 284 294 299 301 302 301 299 298 295 291 286 280 276 274 273 273 274 276 277 277 277 278 281 285 287 290 293 296 297 297 297 294 289 287 286 283 281 279 276 275 273 273 273 270 266 262 258 256 256 255 255
191 206 94 319 323 333 340 355 348 334 95 223 247 194 168 130 100 112 156 108 286 223 174 160 258 260 288 346 273 281 306 299 294 297 294 288 295 302 304 304 304 302 300 298 293 287 280 277 276 276 276 276 277 278 277 277 278 280 284 287 289 291 294 295 296 295 292 287 284 282 280 278 275 273 272 270 269 266 261 257 253 251 250 249 249 248
196 210 143 182 285 290 298 304 286 268 248 237 231 200 199 154 138 163 148 114 242 235 170 175 249 271 296 304 298 304 314 306 302 306 307 302 300 304 305 305 304 303 302 300 296 289 282 279 278 278 278 278 278 278 277 277 277 279 284 286 288 290 293 294 294 293 290 284 281 279 277 274 272 269 267 265 262 258 253 248 245 244 245 243 241 240
101 246 210 201 210 232 255 256 210 113 278 272 264 221 202 193 170 135 104 179 201 190 207 225 244 278 293 292 295 305 306 303 304 307 309 308 307 306 305 305 304 303 303 301 297 290 284 280 280 280 279 279 279 278 277 276 277 279 282 285 287 289 290 291 291 290 286 281 279 277 275 272 269 265 262 258 254 250 245 241 239 239 239 238 234 232
88 287 245 211 226 245 258 265 287 13 271 266 270 248 200 190 171 157 202 222 155 114 268 254 225 252 278 282 291 300 299 300 302 304 306 306 306 306 305 304 303 304 304 302 297 292 287 283 283 282 281 280 278 277 276 275 276 278 281 283 285 286 288 289 288 286 283 279 277 276 273 270 266 261 257 252 247 243 239 236 235 235 234 232 231 229
123 257 242 200 248 264 269 276 278 270 263 262 265 258 216 189 183 197 225 225 163 198 259 268 254 252 272 283 290 291 291 296 300 302 304 305 306 307 307 305 304 306 307 305 302 298 292 288 286 283 281 280 277 275 274 273 274 276 279 281 283 284 286 286 285 284 280 275 274 274 271 266 262 258 253 247 242 239 235 233 232 232 231 229 228 229
145 246 248 171 278 278 275 280 274 253 267 274 265 253 220 204 203 212 234 235 210 236 258 271 279 278 277 279 281 284 289 296 300 303 305 308 311 311 309 308 307 308 309 307 306 304 298 293 290 285 281 278 276 275 274 274 274 276 279 280 281 282 283 282 282 281 277 274 273 272 267 263 259 255 249 244 240 236 233 231 230 229 229 228 227 229
160 260 280 94 306 287 289 322 323 244 250 270 276 267 228 214 220 226 244 248 231 250 261 270 281 280 274 273 276 284 293 301 304 307 310 312 313 314 313 312 310 309 308 308 308 307 304 299 293 287 282 280 279 278 276 274 274 275 277 278 279 280 280 279 278 278 276 272 271 268 265 261 256 252 247 242 238 235 232 230 229 228 227 227 228 230
160 276 359 55 340 288 321 5 332 295 276 273 285 290 224 192 211 225 237 219 203 239 268 283 284 273 275 288 294 296 304 311 312 314 314 312 314 316 314 311 310 309 310 311 311 310 308 305 299 292 287 285 282 279 277 275 273 273 275 277 277 277 276 275 275 276 274 270 267 265 263 260 255 250 246 242 237 235 232 230 228 227 226 227 229 231
147 143 6 37 320 275 299 334 315 319 323 292 279 266 173 187 223 244 252 228 206 211 260 276 265 274 300 314 314 314 317 319 319 317 313 310 313 315 313 311 312 314 315 316 315 313 311 309 306 299 293 289 284 281 280 275 271 272 275 275 274 272 272 273 274 274 272 267 264 263 262 259 255 250 246 242 238 235 232 230 228 227 227 227 229 231
127 111 170 193 245 273 296 321 327 341 321 269 225 172 197 241 238 231 264 266 232 201 231 269 283 295 308 313 313 316 316 317 318 314 310 310 311 311 314 318 320 320 320 320 318 316 314 312 310 305 298 292 287 283 279 272 269 271 272 271 269 269 270 272 272 271 270 267 263 262 261 257 253 250 246 242 239 235 232 230 229 227 227 228 229 230
134 124 194 186 185 267 304 350 354 289 237 256 270 213 242 242 215 212 260 275 264 223 243 270 285 292 303 314 316 315 315 317 317 312 311 317 320 320 323 325 324 323 321 320 319 318 317 314 311 307 301 295 290 283 277 272 269 269 268 267 268 269 270 270 270 270 269 267 263 261 260 258 254 251 247 243 240 237 233 230 229 228 228 228 229 230
142 145 177 179 189 274 334 28 327 271 284 305 331 306 280 276 278 291 287 289 301 306 244 273 297 310 319 323 321 321 321 320 316 313 316 330 336 333 329 324 322 322 321 321 320 320 319 318 314 309 304 296 289 282 278 275 271 268 267 268 267 268 269 269 269 269 268 266 264 261 260 260 256 252 248 245 242 238 234 231 229 228 229 229 230 231
141 140 179 245 215 200 234 247 263 309 323 327 353 355 321 314 312 318 299 294 309 22 354 333 333 330 329 328 326 328 327 323 317 316 325 334 333 329 326 324 323 324 323 324 324 323 323 323 320 315 307 298 290 285 282 277 272 268 267 267 267 267 268 268 269 270 269 268 266 261 261 261 258 255 250 246 243 240 236 233 230 229 230 230 231 231
117 141 175 202 251 95 74 301 318 350 324 278 268 300 301 269 267 234 260 276 294 4 356 348 338 330 330 330 329 331 331 328 316 313 324 328 328 327 327 326 327 327 327 328 328 328 329 329 327 321 312 302 295 290 285 278 272 270 268 268 268 268 268 269 270 271 271 270 268 264 261 261 259 257 252 248 246 242 238 235 232 231 231 232 233 232
46 37 109 123 312 35 101 270 279 257 255 253 259 310 336 318 274 59 352 268 315 353 350 344 333 329 329 328 328 330 331 327 310 311 320 324 325 326 327 327 329 330 330 331 332 332 332 333 331 326 318 310 304 298 289 280 275 272 270 270 270 268 268 270 272 274 274 273 270 264 261 260 259 258 255 251 249 245 241 238 235 233 232 232 233 234
32 25 71 152 259 194 144 224 249 241 262 276 293 324 333 318 127 31 336 284 328 343 341 337 330 326 325 324 325 327 320 308 303 308 316 320 322 325 327 328 329 330 331 333 334 335 336 337 335 330 324 319 315 305 292 283 277 274 273 273 269 268 270 273 275 277 274 269 266 262 259 259 259 259 258 255 251 248 244 240 237 235 234 234 234 235
55 44 66 171 202 201 194 225 272 263 264 289 310 326 331 318 3 25 321 305 328 332 331 331 326 322 322 321 319 313 304 305 306 308 313 318 321 323 326 327 328 330 332 334 335 338 339 339 338 335 330 327 320 308 296 287 280 277 276 272 269 272 276 276 275 273 268 264 263 262 261 260 260 261 260 257 254 250 246 243 240 237 236 235 236 237
154 139 40 152 182 214 177 185 299 285 263 325 326 337 357 359 334 317 310 316 324 324 322 324 322 319 321 318 312 309 308 310 311 312 316 319 320 322 325 326 328 330 333 335 338 339 339 339 339 338 337 334 325 313 302 291 283 281 278 272 273 279 280 275 270 267 264 263 264 264 264 262 260 261 261 258 255 251 248 246 243 240 238 237 237 238
188 181 258 215 186 138 97 20 317 263 279 358 350 354 19 3 309 310 316 317 319 319 319 319 318 319 320 316 313 313 313 315 317 318 319 322 322 323 325 325 326 328 330 332 335 336 336 337 338 339 339 336 329 320 310 297 289 287 280 276 282 285 278 271 267 265 263 264 265 266 266 264 261 261 261 259 257 254 251 248 245 242 240 239 239 239
200 178 295 266 205 107 60 218 241 288 318 347 355 335 321 321 319 322 321 316 317 322 322 320 319 320 320 317 315 316 316 317 319 320 321 322 323 323 324 325 325 326 327 328 330 332 333 334 335 338 340 338 332 325 317 306 298 291 285 287 290 285 275 270 267 263 262 264 266 267 268 266 263 261 261 260 259 257 254 250 248 245 242 241 241 241
231 202 198 231 224 237 244 245 277 311 322 332 335 322 317 323 328 328 323 317 318 322 323 322 320 320 321 321 318 317 317 318 319 320 320 321 321 322 322 322 323 324 325 326 327 330 331 330 331 334 338 340 338 330 323 316 306 296 294 298 294 283 276 273 267 263 263 264 266 269 269 267 265 262 261 261 260 258 257 253 250 247 245 243 243 242
311 29 84 187 281 288 275 278 300 322 326 326 327 326 325 327 329 328 326 322 320 321 322 322 320 319 320 321 319 317 317 318 318 319 320 319 319 320 320 321 322 323 324 325 326 328 329 329 329 330 332 337 340 336 329 322 312 306 307 305 294 284 280 274 267 264 263 262 265 268 267 267 265 262 261 262 261 261 260 256 252 249 246 244 244 244
15 18 357 302 319 321 308 309 320 325 322 321 324 329 328 327 327 327 324 322 321 322 323 322 321 321 320 319 318 317 316 317 317 316 317 317 317 319 320 321 322 323 324 325 325 326 327 327 329 329 327 329 335 337 332 325 319 316 315 306 293 287 282 273 267 265 262 261 264 266 266 266 265 263 262 262 263 263 262 258 255 251 248 246 245 245
344 356 350 333 328 308 286 295 310 315 314 315 322 327 327 326 325 324 323 321 321 322 322 321 321 320 319 318 317 315 314 314 315 314 315 317 317 318 320 321 322 323 323 324 324 324 324 324 326 328 326 325 327 331 330 327 325 322 318 308 298 290 283 275 269 264 260 260 262 264 266 265 263 262 262 262 263 263 263 261 258 255 251 249 247 246
327 336 335 317 305 292 284 302 318 321 316 314 320 322 322 322 321 320 321 321 321 322 321 321 321 320 318 317 316 314 312 312 313 314 315 315 315 317 320 321 322 322 321 322 322 323 323 323 324 324 323 323 324 324 324 326 327 325 319 311 302 293 284 278 271 263 258 256 257 261 264 264 262 262 261 261 262 263 263 263 261 258 255 251 248 248
354 331 333 344 327 309 303 314 322 322 308 309 317 319 320 321 320 319 320 321 322 322 323 322 322 322 321 320 319 317 315 314 314 315 313 312 314 317 319 321 322 321 320 321 321 320 321 323 324 323 321 321 321 319 319 322 325 325 320 314 305 296 288 280 272 263 256 252 253 257 261 262 262 262 260 260 261 262 263 263 261 260 259 253 248 247
3 336 333 338 311 300 304 310 314 310 299 305 314 318 321 323 323 321 320 321 321 322 324 323 322 322 322 322 322 321 317 316 316 316 313 312 314 316 319 322 322 320 320 320 318 317 320 325 326 324 321 319 318 316 316 319 322 323 320 315 308 300 292 283 273 264 257 252 251 254 257 260 261 260 258 258 258 258 261 262 260 260 259 256 251 247